Flag for U.S.A. Weather past 2 weeks in Metlakatla, Alaska, U.S.A.

Now
63 °F

Mostly cloudy.


Feels Like: 63 °F
Forecast: 57 / 61 °F
Wind: 6 mph from South

Location: Metlakatla - Metlakatla Seaplane Base

Current Time: Jul 28, 2014 at 11:57:29 AM

Latest Report: Jul 28, 2014 at 11:16 AM


Visibility: 10 mi

Pressure: 30.09 "Hg

Humidity: 73%

Dew point: 54 °F

Location of MetlakatlaLocation

Historic Weather in Metlakatla — Graph

°F

Metlakatla temperature yesterday

Maximum temperature yesterday: 61 °F (at 3:56 PM)
Minimum temperature yesterday: 55 °F (at 12:16 AM)
Average temperature yesterday: 58 °F

Past Weeks' High & Low Weather Summary

 TemperatureHumidityPressure
High70 °F (Jul 14, 8:56 PM)94% (Jul 17, 9:36 PM)30.20 "Hg (Jul 17, 9:36 PM)
Low52 °F (Jul 23, 3:16 AM)60% (Jul 14, 8:56 PM)29.65 "Hg (Jul 19, 1:36 AM)
Average57 °F85%30.01 "Hg
* Reported Jul 13 10:36 PM — Jul 28 10:36 AM, Metlakatla, Weather by CustomWeather, © 2014

Note: Actual official high and low records may vary slightly from our data, if they occured in-between our weather recording intervals... More about our weather records

Advertising

Metlakatla weather history for previous 24 hours

 ConditionsComfort  
Time TempWeatherWind HumidityBarometerVisibility
10:36 AM
Jul 28
61 °FOvercast.7 mph83%30.10 "Hg10 mi
9:56 AM61 °FMostly cloudy.No wind83%30.10 "Hg10 mi
9:36 AM59 °FOvercast.3 mph88%30.10 "Hg10 mi
8:36 AM61 °FOvercast.No wind77%30.11 "Hg10 mi
6:36 AM61 °FMostly cloudy.No wind77%30.12 "Hg10 mi
6:16 AM61 °FMostly cloudy.No wind77%30.12 "Hg10 mi
5:56 AM59 °FMore clouds than sun.3 mph82%30.13 "Hg10 mi
5:16 AM61 °FMostly cloudy.No wind77%30.14 "Hg10 mi
4:56 AM61 °FOvercast.No wind77%30.13 "Hg10 mi
4:36 AM61 °FPartly cloudy.3 mph77%30.13 "Hg10 mi
3:56 AM59 °FOvercast.3 mph82%30.13 "Hg10 mi
3:36 AM59 °FMostly cloudy.5 mph82%30.14 "Hg7 mi
3:16 AM59 °FOvercast.3 mph82%30.14 "Hg10 mi
2:36 AM59 °FOvercast.5 mph82%30.15 "Hg10 mi
1:56 AM59 °FOvercast.6 mph82%30.15 "Hg10 mi
1:36 AM59 °FOvercast.7 mph82%30.15 "Hg10 mi
11:36 PM
Jul 27
61 °FOvercast.6 mph77%30.16 "Hg10 mi
11:16 PM61 °FMostly cloudy.6 mph77%30.16 "Hg10 mi
10:56 PM61 °FOvercast.7 mph77%30.16 "Hg10 mi
10:36 PM61 °FOvercast.7 mph77%30.16 "Hg10 mi
10:16 PM61 °FOvercast.7 mph77%30.16 "Hg10 mi
9:56 PM61 °FCloudy.7 mph77%30.16 "Hg10 mi
9:16 PM61 °FCloudy.5 mph83%30.16 "Hg10 mi
8:36 PM59 °FCloudy.6 mph88%30.16 "Hg1 mi
8:16 PM59 °FMore clouds than sun.8 mph88%30.16 "Hg10 mi
7:56 PM59 °FMostly cloudy.6 mph88%30.16 "Hg10 mi
7:36 PM59 °FCloudy.9 mph88%30.16 "Hg10 mi
6:56 PM59 °FMostly cloudy.7 mph88%30.17 "Hg10 mi
6:36 PM59 °FMostly cloudy.6 mph88%30.17 "Hg10 mi
5:56 PM57 °FCloudy.8 mph94%30.17 "Hg9 mi
5:36 PM57 °FMore clouds than sun.8 mph94%30.18 "Hg7 mi
4:16 PM61 °FMostly cloudy.7 mph83%30.17 "Hg10 mi
3:56 PM61 °FMostly cloudy.9 mph83%30.17 "Hg10 mi
2:56 PM59 °FMostly cloudy.8 mph88%30.18 "Hg10 mi
2:36 PM59 °FMostly cloudy.6 mph88%30.17 "Hg10 mi
2:16 PM57 °FMore clouds than sun.9 mph94%30.17 "Hg3 mi
1:56 PM57 °FOvercast.9 mph94%30.17 "Hg2 mi
1:16 PM57 °FCloudy.10 mph94%30.17 "Hg3 mi
12:36 PM59 °FCloudy.10 mph88%30.15 "Hg7 mi
12:16 PM59 °FMostly cloudy.8 mph88%30.15 "Hg5 mi
11:56 AM59 °FBroken clouds.7 mph88%30.15 "Hg5 mi
11:36 AM59 °FBroken clouds.5 mph88%30.15 "Hg4 mi
Weather by CustomWeather, © 2014

See weather overviewHow to use our weather pages